Regional Weather Roundup
Issued by NWS

Home | Current Version | Previous Version | Text Only | Print | Product List | Glossary Off
Versions: 1 2 3 4 5 6 7 8 9 10 11 12 13 14 15 16 17 18 19 20 21 22 23 24 25 26 27 28 29 30 31 32 33 34 35 36 37 38 39 40 41 42 43 44 45 46 47 48 49 50

000
ASUS43 KDMX 071401
RWRIA

WEATHER ROUNDUP FOR IOWA
NATIONAL WEATHER SERVICE DES MOINES IA
800 AM CST WED DEC 07 2016

NOTE: "FAIR" INDICATES FEW OR NO CLOUDS BELOW 12,000 FEET WITH NO
SIGNIFICANT WEATHER AND/OR OBSTRUCTIONS TO VISIBILITY.

* - THESE STATIONS ARE NOT NWS STATIONS...THUS NOT UNDER NWS
QUALITY CONTROL.  THEY ALSO DO NOT REPORT WEATHER SUCH
AS PRECIPITATION OR FOG.

IAZ001>003-012>014-020>022-031>034-043>046-071500-
   NORTHWEST IOWA

CITY           SKY/WX    TMP DP  RH WIND       PRES   REMARKS
CARROLL *      PTCLDY    14   9  79 NW21G26   30.18R WCI  -4
CHEROKEE *     CLOUDY    12   5  73 NW16G22   30.19S WCI  -5
DENISON *      CLOUDY    14   7  73 NW17      30.19S WCI  -3
LE MARS *      MOCLDY    12   7  79 NW16G25   30.23S WCI  -4
ORANGE CITY *  CLOUDY    10   7  85 NW21G31   30.18S WCI  -9
SHELDON *      CLOUDY     9   5  85 W20G28    30.17R WCI -11
SIOUX CITY     MOCLDY    16   6  65 NW17      30.24R WCI   0
SPENCER        CLEAR     10   4  76 W28G36    30.16R WCI -12
STORM LAKE *   CLOUDY    10   5  79 NW15G25   30.17R WCI  -6
$$

IAZ055>058-069>071-079>083-090>094-071500-
   SOUTHWEST IOWA

CITY           SKY/WX    TMP DP  RH WIND       PRES   REMARKS
ATLANTIC *     CLOUDY    16  10  79 W12       30.23R WCI   3
AUDUBON *      PTCLDY    16   9  73 NW10G18   30.20R WCI   3
CLARINDA *     CLOUDY    19  10  68 NW7       30.28R WCI  10
COUNCIL BLFS * PTCLDY    16   9  73 NW15      30.24R WCI   1
CRESTON *      CLOUDY    18  10  73 NW15      30.21R WCI   3
HARLAN  *      CLOUDY    16   9  73 NW15      30.26R WCI   1
LAMONI         CLOUDY    20  12  71 NW12      30.21R WCI   8
RED OAK *      CLOUDY    18  10  73 NW12      30.26R WCI   5
SHENANDOAH *   CLOUDY    19  10  68 NW9       30.28R WCI   9
$$

IAZ047>049-059>061-072>074-084-071500-
   CENTRAL IOWA

CITY           SKY/WX    TMP DP  RH WIND       PRES   REMARKS
AMES           CLOUDY    16  10  77 NW15G22   30.17S WCI   1
ANKENY *       PTCLDY    16  10  79 W10       30.20R WCI   3
BOONE *        CLOUDY    14   9  79 W14G22    30.16S WCI  -1
CHARITON *       N/A     19  12  73 NW10      30.19R HAZE    WCI   8
DES MOINES     CLOUDY    18   9  68 NW12      30.20R WCI   5
GRINNELL*      PTCLDY    17  12  81 W15       30.16R WCI   3
KNOXVILLE *    PTCLDY    19  12  73 W12       30.18R WCI   7
MARSHALLTOWN   CLOUDY    16  10  77 W16       30.15R WCI   1
NEWTON *       CLOUDY    16  10  79 W13       30.17R WCI   2
PELLA *        PTCLDY    19  12  74 NW9G16    30.19R WCI   8
PERRY *          N/A     16  12  82 NW12      30.19R WCI   3
$$

IAZ004>006-015-016-023>025-035-036-071500-
   NORTH CENTRAL IOWA

CITY           SKY/WX    TMP DP  RH WIND       PRES   REMARKS
ALGONA *       PTCLDY    12   7  79 W15G22    30.14R WCI  -4
CLARION *      PTCLDY    12   9  85 W23       30.14R WCI  -7
ESTHERVILLE    CLEAR      9   5  84 W22G28    30.12R WCI -11
FORT DODGE *   PTCLDY    12   3  67 W14G20    30.16S WCI  -3
MASON CITY     CLEAR     12   6  77 W17       30.12R WCI  -5
WEBSTER CITY * CLOUDY    14   9  79 W21G28    30.13S WCI  -4
IOWA FALLS *     N/A     15  10  82 W20       30.14R WCI  -2
$$

IAZ007>011-017>019-026>030-037>042-050>054-066-071500-
   NORTHEAST IOWA

CITY           SKY/WX    TMP DP  RH WIND       PRES   REMARKS
CEDAR RAPIDS   CLOUDY    17  14  88 W13       30.13R WCI   4
CHARLES CITY * MOCLDY    14   9  79 W18G26    30.09S WCI  -3
CLINTON *      PTCLDY    20  15  81 W16       30.12S WCI   6
DECORAH *      FLURRIES  14   9  79 W8G17     30.05S WCI   3
DUBUQUE        MOCLDY    16  11  80 W15       30.08R WCI   1
MONTICELLO *   CLOUDY    18  12  79 W14G24    30.11S WCI   4
OELWEIN *      CLOUDY    14  10  85 W16       30.10S WCI  -2
WATERLOO       CLOUDY    15   8  73 W16       30.12S WCI  -1
$$

IAZ064-065-067-068-078-071500-
   EAST CENTRAL IOWA

CITY           SKY/WX    TMP DP  RH WIND       PRES   REMARKS
DAVENPORT      CLOUDY    21  14  74 W14       30.14R WCI   8
IOWA CITY      CLOUDY    21  14  74 W13       30.17R WCI   9
MUSCATINE *    PTCLDY    23  16  74 W12G17    30.18R WCI  12
QUAD CITIES    CLOUDY    23  15  71 W12       30.14R WCI  12
$$

IAZ062-063-075>077-085>089-095>099-071500-
   SOUTHEAST IOWA

CITY           SKY/WX    TMP DP  RH WIND       PRES   REMARKS
BURLINGTON     PTCLDY    24  16  71 NW7       30.17R WCI  16
FAIRFIELD *    CLEAR     21  14  73 W8        30.18R WCI  12
FORT MADISON * CLOUDY    25  16  68 W8        30.19R WCI  16
KEOKUK *       CLOUDY    27  16  63 W10       30.18R WCI  17
OSKALOOSA *      N/A     20  15  81 W8        30.19R WCI  10
CENTERVILLE *    N/A     23  14  68 W9        30.21R WCI  13
OTTUMWA        PTCLDY    21  12  68 W8        30.19R WCI  11
WASHINGTON *   CLEAR     21  16  79 W14       30.18R WCI   8
$$

ABBREVIATIONS USED IN REMARKS
   TC - TEMPERATURES IN CELSIUS
  WCI - WIND CHILL INDEX
   HX - HEAT INDEX
  VSB - VISIBILITY
$$





USA.gov is the U.S. government's official web portal to all federal, state and local government web resources and services.